RH
84 83 82 81 94 97 83 84 86 96 74 63 59 57 55 52 54 56 59 60 65 69 69 62 58 71 86 86 86 87 97 100 70 53 39 38 53 97
86 91 95 96 95 83 83 87 80 66 63 61 60 58 57 57 58 58 68 65 62 64 57 62 71 76 75 75 83 80 85 88 60 58 51 40 40 54
74 83 92 98 86 89 81 72 64 64 66 64 61 60 65 71 58 66 63 60 58 71 77 70 72 77 79 76 75 75 61 57 56 52 50 45 38 39
98 98 95 84 78 79 71 65 66 64 66 72 75 78 81 68 77 76 76 72 79 72 71 74 65 76 70 68 76 79 80 67 55 48 43 43 39 33
92 85 80 81 74 69 69 71 61 70 80 83 82 74 77 74 74 75 73 79 80 70 73 68 66 73 81 84 91 85 69 56 47 49 40 36 35 33
85 81 79 66 66 67 67 62 67 80 79 83 79 78 75 78 79 79 85 81 81 70 68 62 67 69 82 81 77 66 64 62 56 50 42 34 31 34
76 70 65 64 65 68 70 76 87 90 86 80 81 78 80 81 80 93 92 91 70 72 77 76 74 82 79 76 88 80 86 82 54 64 65 46 42 51
72 70 71 72 68 69 80 87 93 86 82 91 90 95 91 97 96 98 86 80 92 62 74 64 68 64 72 95 95 95 96 96 96 78 59 67 83 98
80 80 80 80 77 80 77 70 37 70 89 84 93 98 98 98 88 77 75 84 82 67 78 62 63 77 65 73 94 87 90 81 75 65 50 84 98 92
87 85 88 84 84 70 64 35 23 48 83 84 86 86 89 74 78 84 76 85 80 70 81 89 77 71 65 67 60 53 52 60 65 55 49 94 99 92
78 87 90 88 84 82 67 27 22 32 75 83 61 65 80 87 93 98 90 95 88 79 73 86 73 93 76 63 71 70 68 73 74 60 75 98 98 89
82 90 86 90 92 82 52 28 25 36 31 47 73 83 85 96 94 97 97 96 99 89 81 92 87 75 86 85 84 88 78 84 95 73 75 97 98 88
66 64 94 94 85 57 44 38 44 55 67 78 86 84 91 90 86 87 92 98 96 97 88 91 98 92 77 83 70 92 96 97 94 87 87 97 98 96
66 63 76 71 51 49 54 62 79 80 88 86 82 87 89 88 89 90 90 89 93 97 96 87 96 97 91 79 77 76 94 97 84 94 96 98 98 98
72 65 70 62 63 68 74 89 95 88 96 81 86 88 87 92 90 91 88 87 90 96 90 81 96 96 93 81 83 76 93 95 97 93 98 98 98 98
82 86 80 71 90 94 94 95 93 90 97 97 91 82 89 87 88 91 91 91 88 82 89 96 95 97 80 78 84 85 92 97 98 94 97 97 98 97
93 91 83 77 100 88 89 90 89 87 92 96 84 93 94 90 84 88 94 90 92 92 86 90 91 95 94 92 89 86 93 95 96 97 96 94 95 95
97 87 82 82 93 90 86 91 89 88 94 88 91 94 94 94 86 89 96 89 91 89 90 88 96 81 96 84 86 83 97 95 96 91 93 96 96 92
89 85 84 90 91 90 85 93 92 93 90 91 97 94 96 95 93 89 86 95 86 88 96 97 97 83 93 95 95 75 92 80 93 92 78 83 95 98
99 97 94 92 87 90 85 98 97 89 91 95 92 95 99 99 95 94 85 96 88 95 96 92 93 83 96 96 98 85 77 97 96 99 92 91 87 82
94 91 90 92 96 99 92 84 90 98 94 88 91 95 100 99 96 96 94 85 92 94 83 85 90 92 94 97 95 94 82 82 89 95 88 91 90 86
89 90 96 91 96 99 99 97 95 98 96 96 96 96 98 98 95 97 94 97 86 94 88 77 96 97 96 96 96 94 84 84 87 86 85 84 88 98
91 90 90 90 90 91 95 96 100 100 100 97 94 90 95 87 94 96 96 97 92 84 55 86 94 96 97 95 94 97 90 83 86 85 86 89 91 96
Wind_Speed
24 26 22 20 14 17 20 20 21 27 32 30 31 29 22 27 30 33 35 36 35 35 36 37 36 31 30 30 34 32 28 25 25 27 27 28 30 26
23 21 17 13 16 19 17 18 25 27 35 31 29 28 32 33 36 39 33 37 39 36 36 31 31 32 32 30 28 30 30 27 27 29 29 29 28 31
23 22 13 11 14 17 19 22 23 24 29 33 34 32 32 32 39 33 33 34 31 30 29 31 31 31 32 31 29 27 27 30 29 29 31 30 30 27
13 12 13 14 17 20 22 23 26 29 31 31 29 30 31 33 29 29 29 30 30 29 30 29 28 31 32 26 26 29 30 29 29 29 30 31 30 28
15 14 15 16 20 21 22 25 29 26 24 28 33 34 29 27 28 28 29 29 29 28 24 26 26 29 29 28 28 24 27 30 28 29 30 30 29 29
14 15 17 18 20 22 27 30 25 23 26 27 28 29 27 27 27 28 28 29 30 27 26 27 29 27 29 26 20 23 22 25 28 28 29 27 27 28
14 17 16 18 22 24 23 24 25 28 29 23 25 28 28 28 28 28 29 29 30 26 26 27 27 27 26 26 20 19 24 24 25 24 24 26 27 23
14 16 17 15 17 20 20 20 25 29 22 25 30 31 32 29 28 27 31 31 31 30 28 30 25 27 27 16 15 17 13 22 13 18 20 22 20 20
14 15 16 13 19 21 25 27 27 19 19 22 27 24 24 26 31 34 30 26 28 29 29 33 27 27 22 22 17 14 14 15 18 20 21 20 18 18
13 16 15 15 22 25 24 27 24 20 14 17 23 27 28 30 21 22 24 28 28 25 24 27 27 28 23 20 19 20 21 23 23 23 17 15 15 14
16 12 14 18 23 24 26 25 23 21 12 19 26 22 18 18 18 23 26 26 28 26 23 20 23 20 18 20 20 21 21 15 18 17 15 12 11 9
13 14 16 18 22 24 25 23 22 20 23 22 17 18 16 17 17 17 19 23 23 27 23 20 21 15 19 13 15 13 13 13 13 11 14 11 14 12
17 16 11 20 22 22 21 19 18 21 18 20 21 18 17 17 18 16 15 20 26 29 27 19 20 18 16 17 20 20 5 9 11 10 13 13 19 15
18 17 15 18 18 17 16 15 15 16 18 23 17 19 19 19 19 18 19 20 23 28 21 16 18 17 17 16 17 13 18 5 8 8 5 17 18 20
17 15 13 16 15 14 13 15 16 18 18 23 19 21 18 19 19 18 19 18 20 24 16 11 14 17 16 17 17 13 13 10 7 5 2 15 18 21
19 14 17 19 11 13 13 14 16 16 17 19 23 18 18 19 20 17 18 21 19 18 19 6 10 13 12 12 12 12 7 9 2 3 1 6 8 10
22 23 22 13 13 14 12 13 15 16 17 18 22 19 18 20 17 16 17 19 17 18 17 16 18 7 10 13 13 9 5 8 3 6 2 1 3 3
26 25 21 12 14 16 14 12 15 16 18 21 15 17 18 20 17 15 17 16 18 17 16 15 19 16 9 5 9 8 5 4 4 1 5 7 8 9
24 22 17 12 15 17 14 12 16 16 20 15 17 15 17 16 16 15 14 16 17 14 15 15 16 17 13 18 5 6 2 5 6 4 3 6 6 10
21 21 17 16 16 17 15 13 18 20 19 14 17 11 14 16 14 15 15 14 15 18 15 12 14 13 11 12 12 2 5 1 8 5 4 5 5 6
21 21 19 16 15 19 20 18 20 20 15 13 12 12 14 13 12 12 17 13 11 15 15 14 13 9 6 5 12 4 2 4 2 4 4 3 3 4
21 23 25 23 21 20 22 22 22 19 13 13 14 16 13 14 9 11 12 16 12 12 14 10 11 10 8 8 8 0 3 1 3 5 5 5 4 5
20 21 22 23 21 24 26 26 23 19 16 16 15 13 12 13 6 9 10 11 15 12 13 8 11 8 11 5 5 7 6 4 1 1 2 4 5 2
Wind_Direction
292 293 289 280 265 271 280 291 298 300 301 303 304 309 300 296 294 291 292 293 291 291 289 291 291 290 286 281 272 274 271 273 274 276 278 283 273 272
291 295 288 282 274 291 298 296 298 299 296 301 304 300 303 297 297 297 288 288 291 293 293 293 293 290 288 283 277 269 266 273 273 272 274 278 284 265
299 281 282 302 304 299 306 304 299 298 300 300 299 303 296 301 301 298 298 298 298 299 296 293 291 287 284 280 272 267 269 272 276 272 271 274 278 278
317 311 299 301 299 301 299 295 286 286 294 303 301 301 306 306 305 304 305 299 299 298 301 299 295 290 287 285 274 263 268 273 274 274 270 268 277 283
288 298 303 303 298 297 286 286 296 298 295 297 298 299 304 307 309 308 307 308 302 305 294 298 297 300 296 287 263 264 266 268 273 272 270 271 276 277
298 306 301 303 291 291 294 304 308 304 304 303 303 307 309 311 311 313 308 307 308 305 301 302 299 291 292 295 274 259 265 272 264 268 274 276 273 270
293 294 293 291 294 300 307 313 306 311 314 309 308 311 313 313 312 309 311 315 310 309 305 303 305 305 302 282 262 262 273 271 264 270 277 278 272 272
297 286 287 298 301 305 303 294 304 306 311 310 310 305 305 303 308 311 312 313 313 307 314 303 310 310 312 297 259 262 292 252 271 283 289 280 269 277
289 286 295 297 286 287 288 296 304 304 295 302 307 305 307 308 305 305 302 304 303 305 306 301 304 299 305 309 307 307 300 293 288 291 291 277 267 272
280 289 292 289 283 299 306 311 314 312 306 306 298 295 299 304 305 306 303 303 307 308 316 301 302 304 299 289 286 287 287 286 286 291 280 270 261 266
281 288 288 288 294 307 311 316 319 323 307 288 292 299 307 310 313 308 304 305 304 310 316 303 304 319 302 293 298 294 294 281 277 280 265 255 230 242
291 281 287 291 295 305 312 317 320 325 325 329 334 334 324 322 317 316 325 317 317 312 309 308 305 320 324 323 309 306 266 270 275 272 263 246 199 198
290 293 280 286 295 304 310 317 327 330 332 338 334 325 327 320 314 316 315 319 321 312 313 294 294 299 302 307 316 331 297 285 279 282 269 218 190 209
294 291 278 286 305 309 311 330 338 338 339 329 333 333 326 324 324 324 323 320 319 320 307 280 276 287 294 299 302 324 332 277 286 265 256 187 184 184
298 293 294 309 320 324 337 339 329 333 325 330 335 327 328 326 322 323 322 326 333 359 345 288 275 277 276 282 290 306 324 332 301 282 37 186 180 157
300 294 304 314 311 321 325 321 315 322 318 326 316 326 332 331 330 329 332 340 341 347 359 348 261 264 268 268 280 297 320 321 216 307 67 97 113 158
286 289 293 296 289 295 297 303 309 315 315 307 321 335 332 330 331 344 345 337 340 342 348 359 355 324 279 260 267 282 298 299 335 169 168 104 115 119
274 278 281 278 281 293 299 304 305 309 300 311 324 323 325 328 340 349 347 341 340 341 348 358 358 349 341 275 259 259 244 239 292 9 162 142 144 165
269 270 273 265 272 282 289 290 297 296 299 309 307 318 323 332 340 342 339 347 343 347 359 356 356 360 5 7 237 231 280 225 214 226 202 178 163 153
271 274 275 262 264 271 282 277 277 287 296 300 308 315 320 327 336 337 338 344 348 353 349 345 345 345 351 346 349 265 232 97 178 208 209 189 193 218
270 271 273 269 268 269 281 276 278 288 300 311 321 319 313 318 325 334 338 339 345 347 336 335 344 340 330 337 344 273 208 200 187 181 175 181 186 203
267 263 265 265 258 265 268 273 279 282 293 300 299 295 301 303 319 329 331 339 339 340 332 343 5 1 14 20 26 352 51 61 221 225 224 228 233 204
277 273 271 270 264 252 262 270 273 268 269 276 287 292 291 302 317 319 323 328 335 335 341 3 20 3 18 13 320 17 20 1 323 251 229 225 229 252